[[{"header":{"parameterUnit":"m.s-1","parameterCategory":1,"la1":30.2992,"la2":30.254,"lo1":-89.0895,"lo2":-89.0443,"dy":0.0025,"dx":0.0025,"nx":19,"ny":19,"refTime":"2026-03-31T09:00:00:Z","depth":0,"parameterNumber":2,"parameterNumberName":"U-component_of_WINDS"},"data":[0,0,0,-2.8675,-2.8675,-2.8685,-2.8685,-2.8707,-2.8707,0,0,0,0,0,0,0,0,0,0,0,-2.8677,-2.8678,-2.8675,-2.8675,-2.8685,-2.8685,-2.8707,-2.8707,0,0,0,0,0,0,0,0,0,0,0,-2.8677,-2.8678,-2.8678,-2.8675,-2.8685,-2.8685,-2.8707,-2.8696,0,0,0,0,0,0,0,0,0,0,-2.8685,-2.8693,-2.8678,-2.8678,-2.8675,-2.8685,-2.8685,-2.8696,-2.8697,-2.8707,0,-2.8716,0,-2.8712,-2.871,-2.871,0,0,0,-2.8671,-2.8692,-2.8689,-2.8678,-2.8676,-2.8685,-2.8679,-2.8696,-2.8698,-2.8709,-2.8717,-2.8717,-2.8713,-2.871,-2.871,-2.8777,-2.8777,0,0,-2.8671,-2.8682,-2.8688,-2.8691,-2.8689,-2.8679,-2.868,-2.8697,-2.8707,-2.8717,-2.8718,-2.8713,-2.871,-2.871,-2.8776,-2.8777,0,0,0,-2.8672,-2.8682,-2.8679,-2.869,-2.8691,-2.868,-2.868,-2.8706,-2.8704,-2.8718,-2.8713,-2.871,-2.8711,-2.8776,-2.8777,-2.881,0,0,0,-2.8671,-2.8682,-2.8679,-2.8686,-2.8691,-2.8698,-2.8689,-2.8703,-2.8704,-2.8713,-2.871,-2.8711,-2.8775,-2.8776,-2.8808,-2.8824,0,0,0,-2.8675,-2.8683,-2.8686,-2.8687,-2.8691,-2.8698,-2.8697,-2.8703,-2.8702,-2.871,-2.8711,-2.8775,-2.8776,-2.8806,-2.8821,-2.8843,0,0,0,-2.8682,-2.8717,-2.8687,-2.8724,-2.8691,-2.8719,-2.8697,-2.8717,-2.8728,-2.871,-2.8775,-2.8777,-2.8806,-2.8819,-2.8841,-2.8863,-2.8874,0,0,-2.8732,-2.8723,-2.8744,-2.8718,-2.8753,-2.8717,-2.8758,-2.8757,-2.8749,-2.8768,-2.877,-2.8809,-2.882,-2.8843,-2.8932,-2.8941,0,0,0,-2.8764,-2.8779,-2.8786,-2.8796,-2.8797,-2.8798,-2.879,-2.879,-2.8806,-2.8761,-2.8824,-2.8831,-2.8843,-2.8853,-2.886,-2.887,-2.8782,-2.8782,-2.8782,-2.8849,-2.8835,-2.8869,-2.8856,-2.8867,-2.8859,-2.8866,-2.8865,-2.8849,-2.8864,-2.8869,-2.8925,-2.8937,-2.8942,-2.8952,-2.8881,-2.8881,-2.8881,-2.8881,-2.8919,-2.8938,-2.8915,-2.8939,-2.8925,-2.8946,-2.894,-2.8928,-2.8945,-2.892,-2.893,-2.8902,-2.8951,-2.896,-2.8884,-2.8883,-2.8883,-2.8883,-2.8883,-2.8972,-2.8978,-2.8978,-2.8991,-2.9003,-2.899,-2.9007,-2.8995,-2.8983,-2.8993,-2.8996,-2.8996,-2.8992,-2.8996,-2.8996,-2.8997,-2.8997,-2.8997,-2.8997,-2.9026,-2.9024,-2.904,-2.9043,-2.9048,-2.9053,-2.9046,-2.905,-2.9052,-2.9041,-2.9041,-2.9023,-2.8959,-2.8942,-2.9,-2.8999,-2.8999,-2.8999,-2.8999,-2.9099,-2.908,-2.9104,-2.9109,-2.9112,-2.9124,-2.9108,-2.9119,-2.9121,-2.913,-2.911,-2.9066,-2.9056,-2.905,-2.9036,-2.9114,-2.9114,-2.9114,-2.9114,-2.9142,-2.9136,-2.9157,-2.9165,-2.9172,-2.916,-2.9188,-2.9183,-2.9175,-2.9176,-2.9163,-2.9144,-2.9139,-2.9132,-2.9125,-2.9111,-2.9206,-2.9206,-2.9206,-2.9185,-2.9179,-2.9204,-2.9196,-2.9197,-2.9199,-2.9225,-2.9236,-2.9224,-2.921,-2.9176,-2.9172,-2.9141,-2.9132,-2.9115,-2.9104,-2.9078,0,0]},{"header":{"parameterUnit":"m.s-1","parameterCategory":1,"la1":30.2992,"la2":30.254,"lo1":-89.0895,"lo2":-89.0443,"dy":0.0025,"dx":0.0025,"nx":19,"ny":19,"refTime":"2026-03-31T09:00:00:Z","depth":0,"parameterNumber":3,"parameterNumberName":"V-component_of_WINDS"},"data":[0,0,0,3.4497,3.4498,3.4516,3.4516,3.4555,3.4555,0,0,0,0,0,0,0,0,0,0,0,3.4501,3.4502,3.4497,3.4498,3.4516,3.4516,3.4555,3.4555,0,0,0,0,0,0,0,0,0,0,0,3.4501,3.4502,3.4502,3.4498,3.4516,3.4516,3.4555,3.4535,0,0,0,0,0,0,0,0,0,0,3.4515,3.4528,3.4501,3.4502,3.4498,3.4516,3.4516,3.4534,3.4537,3.4554,0,3.4571,0,3.4564,3.4559,3.4559,0,0,0,3.449,3.4526,3.4523,3.4502,3.4498,3.4516,3.4506,3.4535,3.4538,3.4557,3.4572,3.4573,3.4565,3.4559,3.456,3.4682,3.4683,0,0,3.4489,3.451,3.4521,3.4525,3.4523,3.4505,3.4506,3.4537,3.4554,3.4572,3.4573,3.4565,3.456,3.456,3.4681,3.4682,0,0,0,3.4491,3.4509,3.4504,3.4524,3.4526,3.4506,3.4507,3.4553,3.4549,3.4574,3.4566,3.456,3.4561,3.468,3.4682,3.4747,0,0,0,3.449,3.451,3.4504,3.4517,3.4526,3.4539,3.4523,3.4547,3.455,3.4566,3.456,3.4561,3.4679,3.4681,3.4743,3.4775,0,0,0,3.4497,3.4511,3.4517,3.4518,3.4526,3.4538,3.4537,3.4547,3.4546,3.4559,3.4561,3.4679,3.4681,3.4739,3.4769,3.4813,0,0,0,3.4509,3.4574,3.4518,3.4588,3.4526,3.4579,3.4536,3.4574,3.4593,3.456,3.4679,3.4682,3.4738,3.4765,3.481,3.4855,3.4876,0,0,3.4602,3.4586,3.4625,3.4576,3.4643,3.4574,3.4651,3.4649,3.4632,3.4666,3.4669,3.4744,3.4768,3.4813,3.4983,3.5,0,0,0,3.4662,3.469,3.4704,3.4723,3.4724,3.4727,3.4711,3.4711,3.4739,3.4654,3.4771,3.4785,3.481,3.4831,3.4845,3.4866,3.4692,3.4692,3.4691,3.4823,3.4798,3.4861,3.4838,3.4858,3.4841,3.4855,3.4851,3.4819,3.4848,3.4858,3.4965,3.499,3.5,3.5022,3.4879,3.4879,3.488,3.488,3.4958,3.4995,3.4951,3.4998,3.497,3.5009,3.4996,3.4972,3.5004,3.4954,3.4975,3.4924,3.5019,3.5037,3.4884,3.4884,3.4883,3.4883,3.4882,3.5062,3.5075,3.5073,3.5099,3.5122,3.5096,3.5129,3.5103,3.5078,3.5099,3.5107,3.5106,3.5103,3.5105,3.5105,3.5105,3.5106,3.5106,3.5106,3.5171,3.5166,3.5198,3.5204,3.5213,3.5222,3.5206,3.5215,3.5217,3.5196,3.5196,3.5162,3.5033,3.5002,3.5112,3.5111,3.511,3.511,3.5109,3.5319,3.5281,3.533,3.5339,3.5344,3.5369,3.5335,3.5354,3.5357,3.5375,3.5336,3.5245,3.5227,3.5215,3.5189,3.5341,3.5341,3.5341,3.5341,3.5407,3.5395,3.5439,3.5456,3.5469,3.5443,3.5499,3.5488,3.547,3.547,3.5444,3.5407,3.5397,3.5384,3.5369,3.5345,3.5533,3.5533,3.5533,3.5498,3.5486,3.5539,3.552,3.5523,3.5525,3.5577,3.5599,3.5571,3.554,3.547,3.5462,3.5402,3.5384,3.5353,3.533,3.5285,0,0]}]]